Regional Weather Roundup
Issued by NWS Charleston, SC

Current Version | Previous Version | Graphics & Text | Print | Product List | Glossary Off
Versions: 1 2 3 4 5 6 7 8 9 10 11 12 13 14 15 16 17 18 19 20 21 22 23 24 25 26 27 28 29 30 31 32 33 34 35 36 37 38 39 40 41 42 43 44 45 46 47 48 49 50
000 ASUS42 KCHS 240912 RWRCHS REGIONAL WEATHER ROUNDUP NATIONAL WEATHER SERVICE CHARLESTON SC 500 AM EDT TUE OCT 24 2017 NOTE: "FAIR" INDICATES FEW OR NO CLOUDS BELOW 12,000 FEET WITH NO SIGNIFICANT WEATHER AND/OR OBSTRUCTIONS TO VISIBILITY. NOT ALL STATIONS ARE QUALITY CONTROLLED. USE DATA WITH CAUTION... ESPECIALLY DEWPOINT OBSERVATIONS. SCZ027-030-031-034>040-042>050-241000- ...SOUTHEAST SOUTH CAROLINA... CITY SKY/WX TMP DP RH WIND PRES REMARKS N CHARLESTON MOCLDY 65 61 87 W5 29.86F WATERFRONT PRK NOT AVBL JOHNS ISLAND FAIR 64 61 88 NW5 29.87S PINOPOLIS N/A 66 63 88 W7 29.77F MONCKS CORNER FAIR 61 59 94 CALM 29.86S SUMMERVILLE FAIR 61 59 94 CALM 29.87S BEAUFORT MCAS CLEAR 62 59 90 MISG 29.89S BEAUFORT ARPT PTSUNNY 63 57 82 W7 29.88S HILTON HEAD IS CLEAR 64 57 77 VRB3 29.89F WALTERBORO SUNNY 59 57 94 SW3 29.88S ALLENDALE N/A 57 57 100 CALM N/A ...SOUTHERN MIDLANDS AND PEE DEE... CITY SKY/WX TMP DP RH WIND PRES REMARKS GEORGETOWN FAIR 61 61 100 CALM 29.87S KINGSTREE FAIR 55 55 100 CALM 29.85S ORANGEBURG CLEAR 56 54 93 SW5 29.87S BARNWELL N/A 57 57 100 S3 29.87F AIKEN FAIR 52 52 100 W6 29.88F MANNING FAIR 57 54 88 MISG 29.86S COLUMBIA CLEAR 57 54 89 SW5 29.83F SUMTER CLEAR 56 54 94 SW3 29.82F FLORENCE CLEAR 57 57 100 W5 29.83F MYRTLE BEACH CLEAR 64 62 93 CALM 29.86F N MYRTLE BEACH PTCLDY 65 64 97 CALM 29.85S $$ GAZ063-065-086>088-099>101-113>116-118-119-134>141-150-241000- ...SOUTHEAST GEORGIA... CITY SKY/WX TMP DP RH WIND PRES REMARKS SAVANNAH ARPT CLEAR 60 58 92 W5 29.90F HUNTER AAF CLEAR 60 57 89 CALM 29.88S FORT STEWART PTCLDY 59 55 87 W3 29.89S STATESBORO CLEAR 55 55 100 CALM 29.90S FOG SYLVANIA SUNNY 56 56 100 CALM 29.90S CLAXTON FAIR 56 56 97 CALM 29.91F ...CSRA...CENTRAL AND FAR SOUTHEAST GEORGIA... CITY SKY/WX TMP DP RH WIND PRES REMARKS THOMSON CLEAR 53 51 93 NW5 29.94S AUGUSTA-BUSH CLEAR 57 52 83 NW3 29.86F AUGUSTA-DANIEL CLEAR 58 51 78 W9 29.87F SWAINSBORO FAIR 54 54 100 MISG 29.90F VIDALIA CLEAR 57 54 88 CALM 29.92S EASTMAN FAIR 55 47 75 NW6 29.95S HAZLEHURST FAIR 56 53 91 CALM 29.92S ALMA PTCLDY 56 53 90 CALM 29.92F WAYCROSS MOCLDY 60 55 86 NW5 29.93S JESUP FAIR 61 54 77 CALM 29.93R BAXLEY FAIR 55 55 100 CALM 29.92S BRUNSWICK MOCLDY 61 55 82 W5 29.93S SAINT SIMONS PTCLDY 64 57 78 NW5 29.92R $$ SCZ027-028-034-036>038-045-046-048>050-GAZ119-141-241000- ...LAKE AND SUPPLEMENTAL COASTAL OBSERVATIONS... STATION/POSITION TIME TEMP WIND PRES WAVE SWELL AIR SEA DIR/SP/G HT/PER HT/PER/DIR (UTC) (F) (DEG/KT/KT) (MB) (FT/S) (FT/S/D) WINYAH BAY 0745 67 300/ 3 1011.0 LAKE MURRAY 0820 60 270/ 6/ 10 1010.2F ACE BASIN NERRS 0745 65 280/ 3 1012.0 FORT PULASKI 0836 64 74 320/ 10/ 12 1012.7R SAPELO ISLAND NOT AVBL $$ ANZ835-935-AMZ111-154-330-350-352-354-370-450-454-472-241000- ...C-MAN AND BUOY OBSERVATIONS... STATION/POSITION TIME TEMP WIND PRES WAVE SWELL AIR SEA DIR/SP/G HT/PER HT/PER/DIR (UTC) (F) (DEG/KT/KT) (MB) (FT/S) (FT/S/D) BUOY 41004 0850 73 80 320/ 12/ 19 1010.7R 8/ 8 7/140/ 8 BUOY 41008 0850 69 77 320/ 16/ 19 1012.1R 4/ 7 3/120/ 7 FOLLY BEACH CMAN 0800 66 290/ 4/ 7 1011.9R CAPERS NEARSHORE 0808 66 73 310/ 10/ 16 1011.1R FRIPP NEARSHORE 0808 69 320/ 12/ 17 N/A STATION/POSITION TIME TEMP WIND PRES WAVE SWELL AIR SEA DIR/SP/G HT/PER HT/PER/DIR (UTC) (F) (DEG/KT/KT) (MB) (FT/S) (FT/S/D) 5E ST. MARYS GA 0830 77 N/A 3/ 6 FRYING PAN BUOY 0850 69 77 340/ 4/ 10 1011.4R 9/ 7 8/150/ 7 BUOY 41025 0850 77 80 170/ 27/ 35 1010.9F 12/ 8 CAPE LOOKOUT NC 0800 74 150/ 23/ 25 1010.3F BUOY 41002 0850 78 80 170/ 16/ 17 1014.7F 5/ 6 3/120/ 8 BUOY 41010 NOT AVBL ST AUGUSTINE FL 0900 72 78 270/ 2/ 4 1013.0F $$

USA.gov is the U.S. government's official web portal to all federal, state and local government web resources and services.